Location: ???????
(52.3000°N, 54.4667°E)
Time: 13:41:05
(UTC+00:00)

Okean-O - Pass Details

Date: 24 January 2020
Orbit: 639 x 640 km, 98.2° (Epoch: 27 February)

Event Time Altitude Azimuth Distance (km) Brightness Sun altitude
Rises 13:47:46 0° 155° (SSE) 2,937 6.0 -8.3°
Reaches altitude 10° 13:49:58 10° 153° (SSE) 2,032 5.1 -8.6°
Maximum altitude 13:54:22 67° 71° (ENE) 702 2.6 -9.3°
Drops below altitude 10° 13:58:47 10° 350° (N) 2,047 5.1 -9.9°
Sets 14:01:01 0° 348° (NNW) 2,962 6.0 -10.2°
